Saltillo, Mexico

5:11 AM CDT on April 26, 2017 (GMT -0500)
Plan De Guadalupe International

Weather History for MMIO - January, 2013

Change the Weather History Date:

Monday, January 21, 2013

  Actual Average Record
Temperature  
Mean Temperature 56 °F -  
Max Temperature 68 °F 64 °F 82 °F (2012)
Min Temperature 42 °F 44 °F 33 °F (2011)
Degree Days  
Heating Degree Days 10    
Growing Degree Days 6 (Base 50)    
Moisture  
Dew Point 40 °F    
Average Humidity 54    
Maximum Humidity 82    
Minimum Humidity 18    
Precipitation  
Precipitation 0.00 in - - ()
Sea Level Pressure  
Sea Level Pressure 30.14 in    
Wind  
Wind Speed 3 mph ()    
Max Wind Speed 17 mph    
Max Gust Speed -    
Visibility 8.6 miles    
Events      
Averages and records for this station are not official NWS values.
T = Trace of Precipitation, MM = Missing Value Source: Averaged Metar Reports

Daily Weather History Graph

Daily Weather History Graph

Search for Another Location

Airport or City:

Trip Planner

Search our weather history database for the weather conditions in past years. The results will help you decide how hot, cold, wet, or windy it might be!

Date:

Astronomy

Jan. 21, 2013 Rise Set
Actual Time 7:30 AM CST 6:20 PM CST
Civil Twilight 7:06 AM CST 6:44 PM CST
Nautical Twilight 6:38 AM CST 7:12 PM CST
Astronomical Twilight 6:10 AM CST 7:40 PM CST
Moon 2:03 PM CST (1/21) 2:59 AM CST (1/21)
Length of Visible Light 11h 38m
Length of Day
10h 49m
Waxing Gibbous, 75% of the Moon is Illuminated
Jan 21
Waxing Gibbous
Jan 26
Full
Feb 3
Last Quarter
Feb 10
New
Feb 17
First Quarter

Hourly Weather History & Observations

Time (CST) Temp. Dew Point Humidity Pressure Visibility Wind Dir Wind Speed Gust Speed Precip Events Conditions
12:40 AM 51.8 °F 39.2 °F 62% 30.18 in 8.0 mi Calm Calm - N/A   Clear
1:40 AM 51.8 °F 39.2 °F 62% 30.18 in 8.0 mi Calm Calm - N/A   Clear
2:30 AM 47 °F 26 °F 31% 30.06 in 3 mi South 4.5 mph - -   Haze
4:40 AM 48.2 °F 33.8 °F 58% 30.14 in 8.0 mi Calm Calm - N/A   Scattered Clouds
5:30 AM 47 °F 25 °F 29% 30.09 in 3 mi SSW 4.5 mph - -   Partly Cloudy
5:40 AM 48.2 °F 33.8 °F 58% 30.15 in 8.0 mi Calm Calm - N/A   Scattered Clouds
6:40 AM 48.2 °F 33.8 °F 58% 30.15 in 8.0 mi Calm Calm - N/A   Scattered Clouds
7:40 AM 50.0 °F 39.2 °F 66% 30.19 in 10.0 mi Calm Calm - N/A   Mostly Cloudy
8:30 AM 50 °F 28 °F 31% 30.15 in 11 mi South 4.5 mph - -   Haze
8:40 AM 53.6 °F 35.6 °F 51% 30.21 in 10.0 mi Calm Calm - N/A   Overcast
9:40 AM 59.0 °F 42.8 °F 55% 30.24 in 10.0 mi Calm Calm - N/A   Mostly Cloudy
11:30 AM 64 °F 31 °F 18% 30.11 in 9 mi NNW 6.7 mph - -   Haze
11:40 AM 68.0 °F 42.8 °F 40% 30.22 in 10.0 mi Calm Calm - N/A   Scattered Clouds
12:40 PM 68.0 °F 42.8 °F 40% 30.19 in 10.0 mi Calm Calm - N/A   Scattered Clouds
1:40 PM 68.0 °F 51.8 °F 56% 30.16 in 10.0 mi NE 6.9 mph - N/A   Mostly Cloudy
2:30 PM 66 °F 35 °F 20% 29.98 in 10 mi NNW 8.9 mph - -   Haze
2:40 PM 68.0 °F 51.8 °F 56% 30.13 in 10.0 mi NE 9.2 mph - N/A   Partly Cloudy
3:40 PM 64.4 °F 50.0 °F 59% 30.11 in 10.0 mi NNE 9.2 mph - N/A   Scattered Clouds
4:40 PM 62.6 °F 48.2 °F 59% 30.13 in 10.0 mi North 6.9 mph - N/A   Mostly Cloudy
5:30 PM 59 °F 40 °F 38% 29.94 in 9 mi SE 8.9 mph - -   Haze
5:40 PM 60.8 °F 46.4 °F 59% 30.14 in 10.0 mi NE 6.9 mph - N/A   Mostly Cloudy
6:40 PM 57.2 °F 48.2 °F 72% 30.16 in 10.0 mi North 11.5 mph - N/A   Mostly Cloudy
7:40 PM 57.2 °F 48.2 °F 72% 30.17 in 10.0 mi North 11.5 mph - N/A   Mostly Cloudy
8:30 PM 48 °F 40 °F 66% 29.98 in 3 mi Calm Calm - -   Haze
8:40 PM 53.6 °F 42.8 °F 67% 30.19 in 10.0 mi North 17.3 mph - N/A   Scattered Clouds
9:40 PM 50.0 °F 42.8 °F 76% 30.20 in 10.0 mi NE 9.2 mph - N/A   Scattered Clouds
10:40 PM 50.0 °F 42.8 °F 76% 30.20 in 10.0 mi North 9.2 mph - N/A   Clear
11:30 PM 42 °F 38 °F 82% 30.04 in 3 mi WSW 4.5 mph - -   Haze